Wind_Speed
93 89 86 81 76 71 67 63 61 57 54 51 50 48 43 41 39 38 36 33 32 31 27 32 30 30 35 34 34 34 29 29 32 24 32 41 49 50 51 49 48 43 40 34 26 21 23 34 29 27 31 37 35 22
90 91 89 86 82 77 72 69 66 62 59 57 53 50 47 42 41 41 41 39 37 34 29 36 35 32 35 35 37 35 29 22 23 23 29 40 45 51 53 48 44 39 40 36 31 29 23 22 24 24 28 37 26 21
74 78 84 86 83 80 77 74 70 66 62 59 55 53 49 47 42 42 43 43 43 43 34 37 38 37 35 36 36 34 28 23 22 26 35 40 46 50 49 43 40 39 40 41 40 35 31 31 32 30 35 39 34 39
58 68 72 76 79 80 77 76 74 69 65 62 57 55 52 49 48 43 47 47 45 45 42 39 41 39 37 38 39 34 30 28 25 27 34 40 44 47 46 40 39 41 41 43 42 34 29 34 33 28 37 40 40 38
48 51 61 67 72 77 77 74 70 68 66 64 62 59 58 52 54 50 48 50 50 50 45 43 43 39 42 41 41 40 32 34 32 31 38 45 41 36 39 38 42 41 42 40 35 28 34 36 30 31 39 38 35 39
40 43 47 58 64 66 68 71 69 65 66 63 61 57 56 54 56 55 52 53 53 54 51 44 44 44 45 46 46 44 38 34 36 33 37 51 46 37 35 36 38 40 43 35 36 33 33 37 30 30 38 40 44 44
37 40 42 45 53 61 60 62 63 63 63 64 65 62 62 60 60 58 55 55 55 55 55 51 51 48 46 47 50 50 38 35 40 36 38 44 42 33 33 38 40 39 37 37 37 34 35 41 37 31 40 44 47 38
36 39 38 38 43 51 60 59 57 56 57 57 56 58 59 55 55 57 56 57 56 56 55 49 49 49 48 49 50 49 34 36 42 40 40 42 32 29 33 37 36 39 37 35 32 38 46 42 41 33 31 30 33 35
34 39 35 34 38 45 51 54 54 52 52 52 54 55 55 55 55 57 58 59 56 55 53 50 47 46 49 50 48 35 34 37 43 46 42 41 36 43 40 35 33 37 41 35 35 41 41 41 44 42 32 28 28 33
36 35 37 32 34 39 45 51 54 54 53 53 52 52 49 48 50 52 53 53 55 55 52 45 48 50 51 48 35 31 35 38 43 46 39 48 49 48 40 36 38 34 35 35 32 39 30 37 36 36 36 43 27 25
36 34 36 32 30 31 35 39 43 49 53 54 53 51 51 52 52 53 53 50 50 47 46 44 46 48 45 31 30 31 33 36 42 43 43 48 52 48 40 41 41 38 39 40 41 30 33 36 31 36 41 33 30 35
34 33 35 30 28 28 28 29 31 37 42 47 50 50 50 49 50 49 47 42 45 44 44 43 41 40 30 28 31 32 32 31 39 47 51 49 48 49 45 40 43 42 39 41 41 45 33 40 37 37 29 37 35 28
32 34 34 31 31 29 29 30 31 33 35 37 37 37 40 43 44 44 40 42 43 41 40 40 33 28 28 28 29 30 30 33 37 47 54 48 44 44 43 40 33 42 45 47 47 39 40 41 42 39 39 39 42 46
22 23 31 31 29 29 29 29 29 29 30 31 34 38 38 39 38 38 37 38 39 36 31 27 26 27 24 23 23 27 32 35 36 45 53 44 40 38 36 35 30 29 32 32 31 41 45 47 42 42 50 53 54 58
22 23 25 25 26 26 27 26 24 23 24 25 24 25 27 28 30 31 30 26 23 26 26 27 28 26 24 23 19 24 28 35 39 45 49 46 40 37 33 27 29 30 35 33 37 42 35 41 44 43 48 53 61 68
25 24 24 23 24 26 25 24 24 23 22 21 23 24 25 23 21 20 20 21 22 23 25 26 26 24 23 22 21 23 29 34 36 40 43 42 33 30 29 23 19 14 25 26 23 24 28 32 31 38 42 46 47 52
24 21 22 24 24 26 26 25 24 23 22 19 17 18 18 19 20 20 21 22 24 25 25 25 24 23 23 23 21 23 29 32 34 32 36 36 32 29 21 20 19 13 18 20 24 28 23 21 25 24 22 24 35 42
24 24 24 26 24 23 21 18 16 18 19 18 18 18 18 17 17 19 21 24 26 26 24 23 23 21 22 22 25 27 33 35 36 35 35 32 33 25 19 17 12 16 24 28 26 27 24 22 23 19 18 18 20 22
24 23 24 25 23 19 21 25 25 25 22 18 15 13 12 14 17 20 23 25 28 29 26 23 24 24 24 24 26 37 36 38 37 36 33 32 29 31 24 19 25 30 26 20 20 20 21 23 25 21 22 23 23 25
29 29 26 24 25 26 28 27 24 21 16 12 10 10 13 13 15 16 17 18 18 24 28 25 24 26 28 33 41 43 42 41 39 38 36 33 30 26 24 21 23 25 23 20 23 25 26 23 24 22 20 22 25 29
30 29 31 31 29 27 23 22 20 16 11 7 8 9 8 8 10 11 14 17 24 29 29 36 44 44 48 47 41 37 40 41 40 30 26 26 28 27 21 25 29 27 28 23 20 20 20 24 26 25 24 28 35 39
34 34 32 28 26 23 20 20 17 12 7 12 15 14 12 10 16 21 23 27 35 44 49 43 43 43 47 41 37 42 39 38 30 30 26 29 26 23 23 29 31 28 25 22 21 25 27 28 28 30 34 39 44 46
35 32 30 28 24 22 20 17 13 11 16 20 19 21 16 22 25 27 36 44 41 45 43 42 40 37 44 40 36 34 31 32 39 34 32 31 28 33 30 31 29 29 32 34 37 37 36 34 36 41 46 48 49 49
33 30 28 26 24 21 17 15 12 15 24 25 28 25 24 28 29 38 45 40 41 48 45 37 41 41 44 42 36 37 34 27 29 33 35 42 38 34 34 35 35 38 40 39 41 42 39 42 47 49 51 51 52 53
31 30 27 25 22 18 15 15 18 28 27 30 32 31 32 38 42 38 33 35 42 44 42 36 40 41 39 33 33 34 43 38 31 34 36 36 36 35 36 36 37 38 40 42 43 45 46 49 52 50 51 52 53 57
30 28 25 23 20 18 17 16 25 34 29 32 35 34 38 42 39 40 35 34 44 43 42 37 33 31 36 35 36 35 30 32 25 31 36 40 40 41 37 41 42 41 44 47 49 51 50 50 50 52 55 58 58 60
29 26 25 23 19 18 17 16 26 40 34 32 36 37 38 36 38 38 39 37 41 47 46 45 46 38 34 38 39 34 31 34 33 35 35 33 35 38 37 38 40 40 43 46 48 49 52 55 57 59 61 64 66 67
27 25 23 20 17 16 15 15 25 38 38 33 33 34 38 39 37 38 40 39 39 40 45 47 48 48 39 40 39 40 39 40 39 40 43 42 42 44 45 47 51 53 55 57 59 63 65 67 69 69 69 71 69 59
24 23 21 18 16 17 16 16 21 28 38 42 35 34 35 35 36 37 40 39 39 42 43 46 51 50 48 47 45 45 45 46 46 47 52 52 50 53 54 55 58 61 63 66 69 71 72 71 70 69 65 56 51 51
21 20 18 16 17 18 16 17 23 29 31 32 38 41 40 38 36 36 38 41 45 46 45 44 44 45 46 47 49 48 47 48 51 54 54 56 58 60 63 65 69 72 70 67 65 63 62 62 60 54 49 47 46 44
18 17 18 18 18 19 21 22 24 26 34 35 32 34 34 35 36 39 40 39 39 40 44 46 48 51 53 55 55 56 56 58 60 61 60 61 64 63 64 63 63 64 64 65 66 64 60 56 55 54 54 54 53 52
18 18 17 17 17 18 20 18 17 20 25 32 37 38 36 34 33 32 32 33 35 37 40 42 45 46 48 50 51 52 53 54 53 55 57 57 59 61 61 63 67 66 63 60 54 53 54 52 49 46 43 41 38 36
17 15 15 15 15 14 15 14 15 15 16 19 23 28 33 40 42 42 40 39 40 41 43 44 45 47 49 50 51 53 56 58 59 61 63 67 70 68 61 57 55 55 55 55 53 50 49 49 49 47 46 44 42 42
Wind_Direction
256 255 253 253 253 252 252 253 253 253 254 255 258 262 264 267 264 264 267 266 264 264 260 267 279 286 291 302 308 307 291 286 284 247 215 212 211 211 210 210 208 209 216 194 198 209 223 232 232 227 228 227 229 210
252 249 249 248 248 248 249 250 251 252 254 255 256 260 263 262 261 260 259 262 261 262 262 268 273 280 289 296 305 302 286 278 266 222 201 207 208 210 211 211 209 209 211 199 201 216 222 237 248 217 221 225 210 223
250 247 245 244 244 244 245 247 249 249 250 251 253 256 255 261 260 257 258 260 259 262 263 266 270 281 285 291 298 300 285 268 250 222 211 208 208 211 213 212 209 207 212 215 218 219 230 254 242 221 214 213 201 216
251 245 243 240 240 240 242 244 246 248 249 251 251 252 255 255 256 257 256 258 261 263 262 264 269 279 284 286 290 300 286 257 241 228 220 212 210 213 212 207 205 210 215 215 216 233 234 240 238 224 215 209 210 221
250 244 239 238 237 238 239 241 243 245 246 245 247 248 251 254 248 251 254 257 261 264 266 261 267 278 280 285 289 296 293 251 237 231 217 206 205 209 209 208 207 213 218 228 234 237 234 232 234 218 208 201 199 202
245 238 238 235 234 236 237 237 238 238 237 241 242 246 244 242 246 251 253 257 259 261 263 261 266 275 275 275 283 293 294 243 237 226 221 212 215 217 213 212 219 222 222 229 230 226 228 232 223 206 211 204 207 211
236 234 236 236 232 230 230 233 237 236 238 240 242 245 243 246 248 251 254 253 254 260 263 264 268 268 269 273 279 290 282 231 230 224 218 208 211 206 200 211 217 221 216 220 222 226 230 232 229 209 212 218 220 221
235 231 234 232 228 226 227 230 235 236 236 237 238 240 243 247 246 247 249 255 256 259 261 264 265 268 271 273 280 286 258 223 221 221 214 203 191 199 217 209 214 206 206 216 217 225 229 234 234 216 214 215 223 230
233 228 228 228 225 224 223 225 230 232 233 235 238 240 243 243 245 249 250 253 255 258 260 262 263 266 268 274 283 263 234 217 216 217 211 197 198 211 207 195 208 216 211 220 218 224 231 233 240 237 222 212 221 221
226 225 219 220 223 225 225 227 229 232 233 233 236 237 240 242 244 246 246 251 254 257 261 261 259 263 270 277 263 234 225 219 214 214 206 204 205 202 206 207 207 216 226 219 218 216 222 224 229 220 215 211 222 222
217 219 212 216 219 221 224 226 228 229 232 234 234 237 239 240 242 245 249 250 250 252 254 256 261 266 271 257 235 226 221 224 218 208 205 209 201 205 216 216 209 213 222 231 212 220 220 218 223 219 219 222 235 239
210 209 204 209 214 217 220 219 221 226 228 232 236 235 236 236 239 241 243 246 251 254 255 258 258 262 245 229 224 225 225 223 215 204 205 209 206 211 220 214 211 206 220 232 229 228 221 215 218 220 215 216 229 232
205 201 199 204 208 215 218 220 225 228 227 229 233 233 233 235 236 240 247 249 251 252 253 254 246 224 223 223 226 226 221 217 210 202 205 208 210 214 218 213 210 217 222 226 236 235 228 222 221 220 222 230 238 237
187 181 191 204 215 223 226 229 230 231 231 234 234 232 233 238 241 243 246 250 252 250 232 210 210 217 216 213 219 218 214 211 207 205 204 203 209 213 218 218 211 214 226 229 235 243 248 252 250 249 252 252 249 250
185 183 195 204 214 218 221 225 224 220 217 214 212 217 223 229 234 239 241 233 215 198 194 203 207 206 202 205 214 215 211 204 203 204 203 202 208 212 215 214 218 221 233 242 245 249 251 252 255 256 260 262 266 266
180 187 196 199 195 192 200 201 200 202 205 208 214 224 227 223 211 203 198 195 198 202 201 201 204 207 208 207 217 214 205 201 200 201 198 195 196 203 216 217 215 220 221 218 225 228 236 248 258 266 266 263 262 265
175 179 183 183 186 192 199 204 210 213 212 205 195 188 186 193 198 202 204 203 199 194 196 204 211 213 217 212 220 214 200 194 190 194 187 188 190 201 202 209 212 217 228 236 243 246 233 244 253 253 261 263 262 258
175 180 187 191 191 190 185 180 170 159 157 159 165 167 175 180 189 197 199 197 199 205 211 216 218 220 211 209 210 199 183 183 179 182 181 187 197 194 175 179 206 237 251 263 252 256 259 263 265 277 265 261 262 266
178 179 172 165 161 161 154 147 147 147 145 149 153 167 190 213 225 231 234 233 230 225 218 215 208 202 208 202 188 169 168 167 167 171 179 181 184 184 171 190 223 243 250 252 260 269 271 277 285 281 277 276 279 282
159 154 154 154 144 146 148 148 144 145 149 160 182 215 227 230 236 233 221 212 205 193 188 185 185 184 170 158 153 152 156 163 166 172 170 171 178 186 194 201 225 242 252 265 269 271 276 272 271 273 278 286 297 303
153 153 151 145 146 144 141 148 153 155 167 192 206 188 178 198 189 154 156 155 158 159 161 156 140 141 140 138 145 156 164 164 158 162 172 180 185 176 186 214 226 239 251 252 249 258 269 278 278 278 283 297 306 308
149 149 148 147 146 148 152 155 156 158 170 171 159 149 147 138 136 136 147 146 147 147 144 144 147 151 153 152 158 172 174 173 173 165 163 172 174 191 214 229 233 241 255 258 257 271 285 290 286 284 288 296 305 309
150 152 151 151 152 153 157 160 162 162 164 160 146 134 138 132 137 141 141 131 143 152 145 151 154 158 167 160 157 160 167 178 169 174 180 184 194 203 212 229 242 255 266 278 279 283 290 284 278 289 295 300 303 305
154 152 153 155 156 159 160 159 158 161 160 154 142 142 139 137 144 146 142 149 158 157 155 161 168 166 166 170 177 184 172 181 201 199 199 209 214 221 232 244 256 266 272 272 279 284 280 278 286 292 296 301 304 304
157 155 156 156 156 157 157 157 157 164 161 156 150 149 144 145 147 149 155 166 167 167 158 165 176 179 179 184 189 190 190 202 215 206 215 222 229 237 244 249 252 260 268 274 274 274 277 283 289 294 296 300 300 301
163 163 162 161 161 159 157 157 164 168 173 164 161 158 160 160 165 167 173 172 180 174 171 179 186 197 205 204 206 205 206 210 217 222 226 227 233 238 244 247 254 258 263 266 269 275 282 287 291 296 298 299 301 304
167 165 164 164 160 161 159 157 171 174 180 180 174 172 175 177 179 180 185 182 182 189 189 188 191 196 207 213 214 219 227 228 232 232 231 233 241 247 252 255 259 267 275 282 284 284 286 289 293 295 297 297 299 302
172 168 167 167 167 166 165 164 172 180 181 191 192 189 187 187 188 192 193 197 195 195 201 206 207 208 216 224 230 234 236 240 243 249 251 255 258 263 267 269 272 274 278 282 286 287 289 289 291 293 294 298 299 298
172 173 174 176 178 176 175 179 178 181 189 192 194 201 204 204 199 202 207 206 205 207 212 213 217 224 231 237 240 240 244 246 252 256 259 263 266 267 269 273 277 277 280 282 282 284 288 291 292 294 294 291 290 292
176 181 185 184 178 180 184 186 185 186 190 198 201 208 215 216 215 214 215 217 218 219 222 225 231 237 241 245 247 248 252 255 257 258 260 265 271 273 274 276 278 279 282 284 287 291 292 291 292 290 288 288 287 287
190 195 196 194 191 191 192 189 191 194 197 197 205 214 219 218 222 228 230 229 228 229 232 235 241 246 249 250 254 257 260 261 264 266 270 272 273 276 278 279 281 284 285 287 288 286 284 285 284 283 281 281 282 283
163 169 177 179 178 183 188 188 193 200 205 209 212 214 217 222 227 232 233 236 240 242 244 245 245 247 250 254 258 261 264 265 267 270 272 274 278 280 283 283 285 285 284 284 284 285 286 286 283 283 283 284 284 283
154 161 167 170 175 180 184 191 200 206 212 217 221 227 231 233 235 238 241 245 246 247 248 253 257 260 262 264 265 267 270 270 272 273 274 276 279 281 282 281 281 282 283 284 284 283 282 283 284 283 283 283 280 279
Height
10636 10646 10654 10662 10670 10677 10683 10690 10695 10700 10705 10710 10714 10717 10719 10722 10724 10725 10726 10727 10727 10728 10732 10728 10728 10728 10725 10723 10719 10716 10714 10710 10704 10699 10702 10711 10720 10730 10738 10745 10754 10761 10768 10774 10779 10784 10786 10786 10788 10796 10800 10803 10808 10818
10600 10612 10623 10634 10644 10654 10662 10669 10675 10682 10688 10693 10698 10702 10706 10709 10712 10713 10714 10716 10716 10717 10722 10718 10718 10719 10717 10715 10712 10708 10706 10704 10700 10701 10702 10709 10714 10721 10731 10741 10751 10759 10764 10769 10775 10779 10783 10781 10781 10789 10795 10799 10806 10810
10571 10580 10592 10604 10618 10629 10639 10647 10655 10663 10670 10676 10682 10687 10692 10695 10698 10701 10702 10703 10704 10705 10711 10708 10707 10709 10708 10706 10703 10701 10700 10700 10699 10700 10700 10702 10707 10715 10727 10738 10748 10755 10760 10763 10768 10774 10777 10775 10773 10779 10781 10789 10796 10803
10546 10555 10566 10577 10591 10604 10615 10624 10634 10643 10651 10658 10664 10671 10675 10680 10683 10687 10689 10690 10692 10692 10697 10699 10696 10698 10697 10697 10694 10695 10694 10693 10695 10695 10698 10700 10705 10713 10722 10733 10743 10748 10752 10756 10761 10765 10767 10764 10764 10768 10774 10780 10787 10794
10529 10535 10545 10556 10568 10581 10593 10604 10614 10623 10631 10639 10646 10653 10659 10663 10667 10672 10675 10677 10679 10680 10682 10686 10686 10689 10686 10686 10685 10685 10686 10685 10688 10691 10692 10697 10703 10710 10718 10728 10737 10740 10744 10747 10752 10754 10757 10758 10759 10760 10765 10771 10780 10787
10515 10521 10529 10538 10549 10560 10572 10584 10595 10605 10614 10621 10629 10636 10641 10647 10652 10657 10660 10663 10665 10667 10668 10673 10674 10677 10676 10674 10674 10674 10676 10676 10678 10682 10686 10693 10699 10708 10717 10725 10728 10730 10736 10742 10745 10747 10751 10755 10756 10760 10767 10770 10776 10780
10504 10510 10517 10524 10532 10544 10555 10566 10576 10586 10595 10603 10612 10618 10624 10630 10636 10642 10646 10648 10651 10652 10653 10659 10661 10663 10664 10663 10662 10663 10663 10666 10669 10675 10679 10686 10695 10705 10712 10714 10719 10724 10731 10735 10739 10744 10747 10747 10751 10754 10760 10766 10771 10778
10494 10499 10505 10512 10520 10529 10541 10551 10561 10570 10579 10587 10595 10601 10608 10614 10621 10626 10630 10632 10635 10637 10639 10645 10648 10648 10651 10652 10651 10650 10652 10657 10661 10667 10673 10683 10694 10700 10701 10707 10712 10718 10726 10729 10733 10736 10738 10745 10747 10751 10755 10763 10769 10775
10483 10489 10496 10503 10511 10519 10528 10538 10548 10556 10565 10573 10579 10586 10593 10601 10606 10610 10614 10617 10619 10621 10625 10631 10635 10637 10637 10637 10639 10638 10641 10648 10654 10658 10669 10683 10691 10691 10694 10704 10709 10713 10720 10725 10729 10733 10739 10743 10742 10746 10755 10765 10773 10779
10473 10479 10487 10495 10502 10510 10518 10527 10535 10543 10551 10558 10565 10572 10580 10586 10591 10595 10598 10601 10604 10608 10613 10619 10621 10623 10623 10624 10625 10628 10633 10639 10645 10654 10669 10674 10676 10684 10693 10699 10706 10711 10715 10721 10726 10734 10739 10739 10740 10745 10750 10760 10765 10773
10464 10471 10479 10488 10495 10502 10509 10516 10523 10531 10538 10545 10553 10561 10568 10571 10576 10580 10583 10587 10592 10597 10601 10605 10606 10609 10609 10612 10615 10620 10626 10631 10639 10653 10660 10663 10672 10684 10691 10694 10703 10709 10713 10716 10722 10727 10730 10734 10737 10742 10745 10752 10757 10762
10457 10464 10474 10482 10489 10496 10502 10508 10514 10520 10527 10533 10540 10546 10552 10557 10562 10566 10572 10577 10581 10584 10588 10590 10593 10595 10598 10603 10607 10612 10618 10623 10632 10642 10648 10655 10668 10672 10676 10687 10697 10704 10707 10708 10711 10717 10722 10727 10733 10738 10742 10748 10752 10753
10451 10460 10469 10477 10484 10490 10496 10501 10506 10511 10516 10522 10528 10534 10539 10544 10549 10556 10562 10563 10566 10571 10575 10577 10580 10584 10590 10596 10600 10605 10612 10617 10624 10633 10639 10652 10658 10664 10672 10684 10693 10698 10699 10702 10705 10711 10718 10725 10731 10734 10738 10740 10743 10745
10449 10457 10465 10473 10480 10485 10490 10494 10498 10503 10508 10513 10518 10522 10528 10534 10539 10545 10548 10552 10555 10558 10561 10567 10573 10579 10585 10590 10594 10598 10603 10610 10619 10624 10634 10648 10655 10662 10670 10681 10691 10693 10694 10698 10701 10707 10713 10716 10723 10730 10728 10725 10727 10727
10448 10455 10463 10469 10474 10479 10483 10488 10492 10496 10500 10505 10510 10515 10520 10526 10530 10535 10538 10541 10546 10550 10556 10562 10568 10574 10580 10586 10590 10594 10598 10605 10610 10619 10630 10642 10649 10657 10664 10673 10679 10685 10691 10696 10701 10706 10708 10708 10712 10716 10718 10715 10715 10714
10447 10454 10460 10464 10469 10474 10480 10484 10489 10493 10498 10503 10507 10511 10515 10519 10524 10528 10533 10538 10543 10548 10554 10560 10566 10571 10578 10583 10587 10590 10594 10600 10608 10616 10628 10641 10649 10656 10660 10667 10674 10679 10685 10691 10695 10696 10697 10699 10701 10702 10702 10701 10698 10697
10447 10452 10457 10462 10468 10473 10478 10482 10487 10491 10495 10500 10504 10508 10513 10517 10521 10526 10530 10535 10540 10546 10551 10557 10562 10568 10574 10579 10583 10587 10593 10599 10609 10619 10630 10639 10646 10654 10661 10666 10670 10677 10682 10682 10684 10687 10690 10691 10692 10691 10690 10688 10687 10687
10446 10451 10457 10462 10467 10472 10477 10481 10486 10490 10494 10499 10504 10508 10512 10517 10520 10524 10528 10533 10537 10542 10547 10553 10559 10564 10569 10574 10577 10582 10590 10598 10607 10616 10626 10635 10644 10651 10657 10661 10666 10669 10671 10672 10673 10675 10677 10679 10681 10681 10680 10678 10676 10676
10445 10451 10457 10463 10468 10473 10478 10482 10487 10492 10497 10502 10506 10510 10513 10516 10518 10521 10524 10527 10531 10536 10543 10548 10553 10558 10563 10568 10574 10582 10591 10600 10609 10619 10627 10634 10640 10646 10651 10657 10661 10663 10664 10666 10667 10666 10666 10668 10668 10668 10669 10669 10667 10667
10447 10453 10459 10465 10471 10477 10481 10485 10490 10495 10500 10504 10507 10509 10510 10512 10513 10514 10516 10519 10522 10529 10537 10545 10550 10555 10561 10569 10577 10586 10595 10603 10611 10619 10627 10634 10639 10643 10648 10651 10654 10656 10657 10659 10660 10661 10662 10661 10661 10662 10661 10659 10657 10656
10450 10456 10463 10469 10474 10479 10484 10489 10494 10498 10501 10504 10505 10507 10510 10511 10511 10513 10516 10519 10524 10531 10538 10546 10554 10561 10569 10578 10588 10596 10600 10606 10614 10620 10626 10630 10634 10639 10643 10645 10646 10650 10652 10653 10654 10656 10656 10656 10654 10652 10650 10648 10647 10645
10456 10462 10467 10473 10478 10483 10488 10492 10496 10500 10502 10505 10508 10511 10513 10514 10516 10518 10523 10527 10532 10538 10548 10555 10562 10568 10575 10581 10586 10594 10601 10607 10612 10618 10623 10627 10632 10636 10637 10636 10638 10639 10641 10645 10647 10647 10646 10645 10643 10643 10642 10640 10637 10633
10460 10466 10471 10476 10481 10486 10491 10495 10498 10501 10504 10508 10512 10516 10517 10520 10523 10527 10532 10539 10544 10549 10557 10564 10570 10575 10580 10588 10592 10598 10604 10608 10612 10616 10621 10625 10628 10631 10630 10630 10632 10634 10635 10636 10637 10636 10635 10633 10633 10632 10630 10629 10626 10622
10464 10470 10475 10480 10484 10489 10493 10497 10500 10503 10507 10512 10517 10521 10523 10526 10531 10535 10540 10545 10550 10557 10564 10570 10574 10581 10586 10590 10594 10599 10603 10608 10612 10615 10619 10622 10623 10625 10626 10628 10628 10628 10628 10628 10627 10626 10625 10623 10622 10620 10617 10614 10611 10607
10468 10474 10479 10483 10488 10492 10496 10499 10502 10506 10511 10516 10521 10525 10529 10533 10539 10543 10547 10551 10556 10562 10568 10573 10579 10584 10588 10592 10596 10597 10600 10603 10607 10613 10615 10616 10618 10620 10622 10623 10624 10623 10623 10622 10621 10619 10617 10615 10611 10608 10604 10601 10598 10594
10472 10477 10483 10487 10491 10495 10498 10501 10505 10510 10514 10520 10525 10529 10533 10537 10540 10544 10548 10553 10557 10563 10568 10573 10578 10581 10584 10588 10591 10594 10599 10602 10603 10606 10609 10611 10612 10614 10617 10617 10617 10616 10614 10613 10611 10609 10605 10602 10599 10595 10591 10588 10585 10580
10475 10480 10485 10490 10494 10498 10501 10504 10508 10512 10517 10521 10527 10531 10535 10538 10542 10546 10550 10554 10559 10564 10567 10571 10574 10577 10581 10583 10585 10589 10593 10595 10596 10598 10600 10603 10604 10605 10606 10606 10605 10603 10601 10600 10598 10596 10594 10590 10587 10584 10579 10573 10570 10566
10480 10485 10489 10493 10496 10500 10503 10507 10510 10515 10519 10523 10528 10532 10536 10540 10543 10546 10550 10554 10559 10563 10567 10571 10573 10574 10576 10577 10580 10582 10586 10589 10589 10590 10591 10593 10594 10594 10595 10595 10593 10591 10590 10586 10582 10579 10578 10576 10573 10569 10565 10560 10557 10552
10482 10487 10491 10494 10498 10501 10504 10508 10511 10515 10519 10523 10527 10531 10535 10538 10544 10548 10551 10554 10557 10561 10563 10566 10568 10570 10572 10574 10575 10577 10580 10582 10584 10583 10584 10585 10585 10583 10582 10580 10576 10574 10573 10571 10568 10565 10561 10558 10555 10552 10548 10544 10541 10538
10485 10488 10492 10496 10499 10502 10505 10508 10512 10515 10519 10522 10526 10529 10533 10537 10541 10545 10548 10550 10553 10557 10560 10562 10563 10562 10563 10564 10566 10569 10571 10571 10569 10570 10570 10570 10568 10566 10564 10562 10559 10557 10557 10555 10551 10548 10544 10540 10537 10533 10529 10526 10524 10522
10486 10489 10492 10496 10499 10502 10505 10508 10511 10514 10518 10522 10524 10527 10531 10535 10538 10541 10543 10546 10548 10550 10553 10555 10555 10554 10555 10556 10557 10558 10558 10557 10556 10557 10556 10553 10550 10548 10546 10546 10543 10539 10537 10534 10531 10529 10527 10524 10520 10519 10516 10512 10508 10505
10486 10489 10492 10496 10499 10502 10506 10509 10512 10514 10516 10518 10521 10524 10527 10531 10533 10535 10537 10539 10540 10541 10542 10544 10545 10545 10545 10544 10543 10543 10543 10541 10539 10538 10536 10535 10532 10530 10529 10528 10526 10521 10518 10515 10512 10508 10507 10506 10502 10499 10495 10493 10491 10489
10491 10493 10496 10499 10501 10504 10506 10508 10510 10512 10514 10517 10520 10522 10524 10526 10527 10529 10530 10532 10533 10534 10534 10533 10532 10531 10531 10530 10529 10528 10527 10525 10524 10523 10520 10518 10516 10514 10510 10508 10506 10503 10501 10498 10494 10491 10489 10486 10484 10482 10479 10477 10475 10474